Location: Northeast Philadelphia Airport
(40.0833°N, 75.0000°W)
Time: 21:07:44
(UTC-05:00)

Tiangong 2 - Visible Passes

Search period start: 10 December 2018 00:00
Search period end: 20 December 2018 00:00
Orbit: 382 x 392 km, 42.8° (Epoch: 10 December)

Date Brightness Start Highest point End Pass type
(mag) Time Alt. Az. Time Alt. Az. Time Alt. Az.
17 Dec 3.6 18:25:59 10° S 18:26:44 13° S 18:26:44 13° S visible
18 Dec 4.1 19:02:34 10° SW 19:03:11 15° SW 19:03:11 15° SW visible
19 Dec 2.4 18:04:10 10° SSW 18:06:54 27° SSE 18:07:17 26° SE visible
